[[{"header":{"parameterUnit":"m.s-1","parameterCategory":1,"la1":30.2991,"la2":30.254,"lo1":-89.0895,"lo2":-89.0444,"dy":0.0017,"dx":0.0017,"nx":28,"ny":28,"refTime":"2024-05-27T09:00:00:Z","depth":0,"parameterNumber":2,"parameterNumberName":"U-component_of_WINDS"},"data":[0,0,0,0,0,0,0,0,0,0,0,0,0,0,0,0,0,0,0,0,0,0,0,0,0,0,0,0,0,0,0,0,0,0,0,0,0,0,0,0,0,0,0,0,0,0,0,0,0,0,0,0,0,0,0,0,0,0,1.1623,1.1625,0,1.1751,1.1753,1.1754,1.1767,1.1766,1.1764,1.1763,1.1893,1.1898,1.1903,0,0,0,0,0,0,0,0,0,0,0,0,0,1.1389,1.1393,1.1623,1.1625,1.1626,1.1751,1.1753,1.1754,1.1767,1.1766,1.1764,1.1763,1.1892,1.1897,1.1903,0,0,0,0,0,0,0,0,0,0,0,0,0,1.1501,1.1394,1.1623,1.1648,1.1651,1.1751,1.1753,1.1755,1.1768,1.1766,1.1764,1.1762,1.189,1.1897,1.1904,1.1987,0,0,1.1925,1.1928,0,0,0,0,0,0,0,0,1.1495,1.1509,1.1642,1.1646,1.165,1.1741,1.1718,1.1833,1.1768,1.1723,1.1763,1.1761,1.1844,1.1855,1.1883,1.1993,1.1998,1.1926,1.193,1.1933,1.1935,0,0,0,0,0,0,0,1.1487,1.1504,1.1674,1.1644,1.1649,1.1652,1.1666,1.174,1.1793,1.1727,1.1728,1.1743,1.1846,1.1876,1.1886,1.2,1.1926,1.1932,1.1936,1.1939,1.2184,1.2186,0,0,0,0,0,0,1.1474,1.1497,1.167,1.1678,1.1566,1.1658,1.1673,1.1714,1.1793,1.1803,1.1745,1.1744,1.1865,1.1878,1.1891,1.1993,1.1933,1.194,1.1944,1.2181,1.2184,1.2187,0,0,0,0,0,0,1.1469,1.149,1.1664,1.1588,1.161,1.1664,1.171,1.1717,1.1748,1.1806,1.1816,1.1766,1.1864,1.1881,1.1963,1.1998,1.1943,1.1949,1.2179,1.2182,1.2185,1.2197,0,0,0,0,0,0,1.1463,1.1488,1.152,1.1589,1.1614,1.1734,1.1712,1.1721,1.176,1.1759,1.1829,1.1838,1.1864,1.1952,1.197,1.2006,1.1955,1.2176,1.218,1.2184,1.2194,1.2201,1.2206,0,0,0,0,0,1.1454,1.1518,1.1522,1.1542,1.1656,1.1736,1.1751,1.178,1.1763,1.1796,1.1833,1.1836,1.1991,1.196,1.198,1.2019,1.2174,1.2179,1.2184,1.2191,1.2199,1.2206,0,0,0,0,0,0,1.1453,1.1528,1.1532,1.1621,1.1672,1.1738,1.1781,1.1788,1.1845,1.1842,1.1875,1.189,1.1971,1.2003,1.1968,1.2103,1.2081,1.209,1.2079,1.2087,1.2093,1.2084,1.1961,0,0,0,0,0,1.1462,1.1522,1.1584,1.1656,1.1682,1.1727,1.1763,1.1781,1.1835,1.1857,1.19,1.1952,1.2013,1.2052,1.2111,1.2199,1.2214,1.2236,1.2242,1.2246,1.2254,1.2302,1.2313,1.2203,1.2203,1.2203,0,0,1.1484,1.1532,1.1567,1.1657,1.1699,1.1759,1.1745,1.1809,1.1854,1.1866,1.1946,1.198,1.204,1.2125,1.2165,1.2155,1.2287,1.2253,1.2256,1.2261,1.2309,1.2319,1.2328,1.2207,1.2206,1.2206,0,0,1.1553,1.1596,1.166,1.1702,1.1766,1.1795,1.181,1.1876,1.1899,1.1979,1.1989,1.2043,1.2147,1.2189,1.2225,1.2309,1.2314,1.2328,1.236,1.2406,1.2415,1.2423,1.2452,1.2463,1.2335,1.2335,1.2335,0,1.1571,1.1662,1.1692,1.1756,1.1795,1.1809,1.1874,1.1913,1.1993,1.2019,1.2007,1.2137,1.2179,1.2274,1.2294,1.2322,1.2341,1.232,1.2411,1.242,1.2427,1.2456,1.2467,1.2336,1.2336,1.2336,1.2336,0,1.1681,1.1744,1.1788,1.1865,1.1909,1.1973,1.2012,1.2053,1.2066,1.2097,1.2178,1.2229,1.2298,1.2322,1.2336,1.2419,1.2411,1.2405,1.2382,1.2438,1.2466,1.2477,1.2338,1.2338,1.2337,1.2337,0,0,1.1753,1.1845,1.186,1.1895,1.1966,1.2015,1.208,1.2147,1.2181,1.2236,1.229,1.2377,1.2372,1.2412,1.2431,1.2472,1.2535,1.2461,1.2463,1.2473,1.2629,1.2632,1.2645,1.2539,1.2541,1.2543,1.2623,0,1.1829,1.1945,1.1974,1.2072,1.2131,1.2145,1.2201,1.225,1.228,1.2334,1.2367,1.2428,1.2417,1.2441,1.2482,1.2519,1.2567,1.2513,1.2589,1.2592,1.2573,1.2659,1.2664,1.2737,1.2634,1.2636,1.2638,0,1.1934,1.1991,1.2095,1.2158,1.2184,1.2234,1.2298,1.2349,1.2405,1.2424,1.2469,1.2484,1.2551,1.2525,1.2618,1.2581,1.2614,1.2636,1.264,1.2648,1.2618,1.2669,1.2762,1.2772,1.2655,1.2654,1.2652,0,1.1975,1.2078,1.2153,1.2183,1.2258,1.2293,1.2326,1.238,1.2419,1.2475,1.25,1.2563,1.2597,1.2645,1.2677,1.2655,1.2767,1.2744,1.2784,1.2783,1.2807,1.2805,1.2905,1.2828,1.2828,1.2828,1.2828,0,1.2058,1.2121,1.2173,1.2219,1.229,1.2322,1.2392,1.2425,1.2473,1.2525,1.2541,1.259,1.2629,1.2683,1.2708,1.2781,1.2796,1.2813,1.2819,1.2812,1.2809,1.2833,1.2829,1.2831,1.283,1.283,1.2829,0,1.2116,1.2153,1.2236,1.2301,1.2318,1.2368,1.2423,1.2468,1.2499,1.2565,1.2583,1.2631,1.2695,1.2731,1.2813,1.2829,1.291,1.2914,1.2891,1.2894,1.2932,1.2927,1.3051,1.3069,1.298,1.2981,1.2982,0,1.2166,1.2215,1.2285,1.2321,1.2355,1.2414,1.2453,1.2486,1.2527,1.2594,1.2631,1.2697,1.2751,1.2853,1.2895,1.2957,1.2962,1.3001,1.2971,1.2962,1.2962,1.2959,1.2963,1.3006,1.3007,1.3007,1.3008,0,1.225,1.2266,1.2323,1.2386,1.2433,1.2484,1.2535,1.2564,1.2605,1.265,1.2716,1.2758,1.2841,1.2906,1.2971,1.3005,1.3013,1.3017,1.3029,1.3022,1.3007,1.3015,1.2905,1.3014,1.3013,1.3013,1.3012,1.3012,1.2306,1.235,1.2406,1.2468,1.251,1.2557,1.2602,1.2638,1.2694,1.2764,1.2781,1.285,1.2905,1.2993,1.3028,1.3083,1.3076,1.3094,1.3099,1.3103,1.3104,1.2999,1.3095,1.3095,1.3095,1.3095,1.3095,0,1.2391,1.2427,1.2484,1.2555,1.2604,1.2608,1.2664,1.2705,1.2766,1.2816,1.2869,1.2945,1.3008,1.3054,1.3118,1.3153,1.3158,1.3169,1.3166,1.3174,1.3107,1.3089,1.3163,1.3163,1.3163,1.3163,1.3163,1.3163,1.2441,1.2515,1.2538,1.2633,1.2669,1.2737,1.2769,1.2812,1.2852,1.2936,1.2989,1.3019,1.3067,1.3135,1.3192,1.3204,1.3227,1.3237,1.3249,1.3186,1.3178,1.3171,1.3155,1.3241,1.3242,1.3311,1.3312,1.3312]},{"header":{"parameterUnit":"m.s-1","parameterCategory":1,"la1":30.2991,"la2":30.254,"lo1":-89.0895,"lo2":-89.0444,"dy":0.0017,"dx":0.0017,"nx":28,"ny":28,"refTime":"2024-05-27T09:00:00:Z","depth":0,"parameterNumber":3,"parameterNumberName":"V-component_of_WINDS"},"data":[0,0,0,0,0,0,0,0,0,0,0,0,0,0,0,0,0,0,0,0,0,0,0,0,0,0,0,0,0,0,0,0,0,0,0,0,0,0,0,0,0,0,0,0,0,0,0,0,0,0,0,0,0,0,0,0,0,0,2.0547,2.0546,0,2.0485,2.0484,2.0484,2.0414,2.0413,2.0411,2.041,2.0345,2.0344,2.0343,0,0,0,0,0,0,0,0,0,0,0,0,0,2.0601,2.06,2.0547,2.0546,2.0545,2.0485,2.0484,2.0484,2.0414,2.0412,2.0411,2.041,2.0345,2.0344,2.0343,0,0,0,0,0,0,0,0,0,0,0,0,0,2.0562,2.06,2.0547,2.0503,2.0499,2.0485,2.0484,2.0483,2.0414,2.0412,2.0411,2.0409,2.0346,2.0344,2.0343,2.0367,0,0,2.034,2.0339,0,0,0,0,0,0,0,0,2.0565,2.056,2.051,2.0506,2.0501,2.0455,2.0479,2.0444,2.0414,2.0446,2.041,2.0409,2.0383,2.0379,2.037,2.0364,2.0361,2.034,2.0339,2.0338,2.0338,0,0,0,0,0,0,0,2.0567,2.0563,2.0522,2.051,2.0504,2.0486,2.0478,2.0472,2.0424,2.0443,2.0438,2.0432,2.038,2.0372,2.0368,2.036,2.034,2.0339,2.0338,2.0337,2.037,2.0371,0,0,0,0,0,0,2.0577,2.0565,2.0524,2.052,2.053,2.0486,2.0478,2.0472,2.0424,2.0415,2.0433,2.0429,2.0374,2.037,2.0366,2.039,2.0338,2.0337,2.0337,2.0368,2.037,2.0372,0,0,0,0,0,0,2.0578,2.0574,2.0527,2.0541,2.0534,2.0487,2.048,2.0471,2.0463,2.0416,2.0407,2.0434,2.0373,2.0367,2.0367,2.0387,2.0337,2.0336,2.0367,2.0369,2.0371,2.044,0,0,0,0,0,0,2.058,2.0575,2.0584,2.0542,2.0533,2.0531,2.0481,2.0471,2.0461,2.0455,2.0414,2.0406,2.0371,2.037,2.0366,2.0385,2.0335,2.0365,2.0368,2.037,2.0436,2.0445,2.0452,0,0,0,0,0,2.0582,2.0606,2.0585,2.0581,2.0544,2.0532,2.0527,2.0487,2.0463,2.0472,2.0442,2.0407,2.0385,2.037,2.0366,2.0384,2.0363,2.0367,2.037,2.0432,2.0443,2.0452,0,0,0,0,0,0,2.0651,2.0599,2.0576,2.0587,2.0564,2.052,2.053,2.05,2.0483,2.0478,2.0428,2.0419,2.0425,2.0404,2.0388,2.0404,2.0369,2.0372,2.0418,2.0428,2.0436,2.044,2.0334,0,0,0,0,0,2.0667,2.0662,2.0617,2.0631,2.0621,2.0578,2.0571,2.0542,2.0516,2.0506,2.0476,2.0452,2.0439,2.0432,2.0418,2.0432,2.0422,2.0443,2.0451,2.0458,2.0461,2.0466,2.0474,2.0383,2.0383,2.0383,0,0,2.0701,2.0672,2.0672,2.0644,2.0623,2.0618,2.057,2.0567,2.0562,2.0505,2.0504,2.0481,2.045,2.0458,2.0459,2.0441,2.0483,2.0462,2.0468,2.0467,2.047,2.0479,2.0487,2.0386,2.0385,2.0385,0,0,2.076,2.0738,2.0747,2.0727,2.0697,2.0667,2.067,2.063,2.0613,2.0611,2.0567,2.0561,2.0541,2.0521,2.0508,2.0559,2.0526,2.0555,2.0597,2.0603,2.061,2.0616,2.0634,2.0641,2.0558,2.0558,2.0559,0,2.0806,2.0797,2.0755,2.0755,2.0743,2.0692,2.07,2.0683,2.0649,2.0642,2.0621,2.0594,2.057,2.0572,2.0584,2.0576,2.0576,2.056,2.0613,2.0618,2.0623,2.064,2.0647,2.0562,2.0562,2.0561,2.0561,0,2.0855,2.085,2.086,2.083,2.0819,2.0823,2.0781,2.0775,2.0747,2.072,2.0718,2.0687,2.0666,2.0664,2.0636,2.0661,2.065,2.0622,2.0586,2.0637,2.0651,2.0657,2.0568,2.0566,2.0565,2.0564,0,0,2.0956,2.0901,2.0906,2.0891,2.0854,2.0848,2.0849,2.0829,2.0825,2.0803,2.0803,2.0786,2.076,2.0745,2.0715,2.072,2.0761,2.069,2.0689,2.0705,2.0787,2.0808,2.0817,2.074,2.0741,2.0741,2.0789,0,2.1008,2.1008,2.0969,2.098,2.0974,2.0925,2.0925,2.0902,2.0876,2.0867,2.0838,2.0827,2.0793,2.0784,2.0787,2.0756,2.0777,2.0752,2.0738,2.0738,2.0747,2.0824,2.0847,2.0894,2.0795,2.0795,2.0796,0,2.1069,2.1052,2.1062,2.1023,2.1019,2.1021,2.0999,2.0991,2.0963,2.0943,2.0927,2.0893,2.089,2.0855,2.085,2.0834,2.0825,2.0809,2.081,2.0807,2.077,2.0824,2.0908,2.0915,2.0805,2.0804,2.0803,0,2.1142,2.112,2.1124,2.1112,2.1068,2.107,2.1051,2.1021,2.1011,2.0992,2.0985,2.0965,2.0954,2.0939,2.0899,2.0878,2.0898,2.0861,2.0882,2.0883,2.0889,2.0889,2.0973,2.0883,2.0883,2.0883,2.0883,0,2.1204,2.1212,2.1156,2.1158,2.1165,2.112,2.1128,2.1104,2.1078,2.1074,2.1029,2.1026,2.0974,2.0964,2.0933,2.0933,2.0929,2.0912,2.0904,2.0917,2.0919,2.0911,2.0906,2.0885,2.0884,2.0884,2.0884,0,2.1287,2.1249,2.125,2.1207,2.1197,2.1204,2.1167,2.1166,2.1138,2.1133,2.1129,2.1084,2.107,2.1029,2.1005,2.0984,2.0993,2.0977,2.1003,2.0998,2.1021,2.102,2.1103,2.1112,2.1017,2.1018,2.1018,0,2.133,2.1335,2.1293,2.1287,2.1271,2.1262,2.1252,2.1208,2.1199,2.1167,2.117,2.1153,2.1137,2.1117,2.1081,2.1062,2.1046,2.1076,2.1042,2.1055,2.1046,2.1046,2.1046,2.1084,2.1085,2.1086,2.1087,0,2.1409,2.139,2.1378,2.1359,2.1349,2.1331,2.1311,2.1309,2.1259,2.1251,2.1237,2.1225,2.12,2.1184,2.1159,2.1138,2.1104,2.1098,2.1101,2.1115,2.113,2.1122,2.1023,2.1096,2.1095,2.1094,2.1094,2.1094,2.1473,2.1475,2.1446,2.1434,2.1414,2.1396,2.1394,2.1365,2.1353,2.133,2.1304,2.1293,2.1263,2.1227,2.1208,2.1198,2.118,2.1186,2.1187,2.1189,2.1195,2.1131,2.1193,2.1193,2.1193,2.1193,2.1192,0,2.155,2.1529,2.1518,2.1492,2.1482,2.1452,2.1428,2.1421,2.1412,2.1388,2.1374,2.1357,2.1341,2.1304,2.1283,2.1282,2.1266,2.1278,2.1278,2.1274,2.1213,2.1211,2.1292,2.1292,2.1292,2.1292,2.1292,2.1292,2.159,2.1592,2.1569,2.1561,2.1539,2.1529,2.1518,2.1501,2.1481,2.1465,2.1451,2.1428,2.1398,2.1375,2.1358,2.1347,2.1342,2.1359,2.1344,2.1287,2.1278,2.1269,2.1268,2.1358,2.1359,2.1405,2.1406,2.1406]}]]